Location: Spruce Knob
(38.6995°N, 79.5330°W)
Time: 21:11:52
(UTC-04:00)

A-11 Canister half - Pass Details

Date: 30 January 2022
Orbit: 1513 x 1686 km, 47.2° (Epoch: 24 May)

Event Time Altitude Azimuth Distance (km) Brightness Sun altitude
Rises 16:12:34 0° 248° (WSW) 4,810 13.3 13.7°
Reaches altitude 10° 16:15:44 10° 250° (WSW) 3,802 13.0 13.2°
Maximum altitude 16:25:22 73° 335° (NNW) 1,614 9.3 11.6°
Drops below altitude 10° 16:34:42 10° 60° (ENE) 3,692 10.4 10.1°
Sets 16:37:44 0° 63° (ENE) 4,665 10.9 9.6°
